Nashua, NH

11:28 AM EDT on August 16, 2017 (GMT -0400)
Boire

Weather History for KASH - October, 2014

Change the Weather History Date:

Sunday, October 5, 2014

  Actual Average Record
Temperature  
Mean Temperature 51 °F -  
Max Temperature 61 °F 63 °F 86 °F (2007)
Min Temperature 41 °F 40 °F 21 °F (1996)
Degree Days  
Heating Degree Days 14    
Growing Degree Days 1 (Base 50)    
Moisture  
Dew Point 43 °F    
Average Humidity 72    
Maximum Humidity 97    
Minimum Humidity 33    
Precipitation  
Precipitation 0.00 in - - ()
Sea Level Pressure  
Sea Level Pressure 30.44 in    
Wind  
Wind Speed 5 mph (West)    
Max Wind Speed 12 mph    
Max Gust Speed 17 mph    
Visibility 10 miles    
Events      
Averages and records for this station are not official NWS values.
T = Trace of Precipitation, MM = Missing Value Source: NWS Daily Summary

Daily Weather History Graph

Daily Weather History Graph

Search for Another Location

Airport or City:

Trip Planner

Search our weather history database for the weather conditions in past years. The results will help you decide how hot, cold, wet, or windy it might be!

Date:

Astronomy

Oct. 05, 2014 Rise Set
Actual Time 6:47 AM EDT 6:20 PM EDT
Civil Twilight 6:19 AM EDT 6:48 PM EDT
Nautical Twilight 5:46 AM EDT 7:21 PM EDT
Astronomical Twilight 5:13 AM EDT 7:54 PM EDT
Moon 4:39 PM EDT (10/5) 3:16 AM EDT (10/5)
Length of Visible Light 12h 29m
Length of Day
11h 32m
Waxing Gibbous, 89% of the Moon is Illuminated
Oct 5
Waxing Gibbous
Oct 8
Full
Oct 15
Last Quarter
Oct 23
New
Oct 30
First Quarter

Hourly Weather History & Observations

Time (EDT) Temp. Dew Point Humidity Pressure Visibility Wind Dir Wind Speed Gust Speed Precip Events Conditions
12:18 AM 60.8 °F 57.2 °F 88% 29.56 in 10.0 mi West 6.9 mph - N/A   Scattered Clouds
12:51 AM 57.9 °F 55.9 °F 93% 30.29 in 10.0 mi Calm Calm - N/A   Scattered Clouds
1:51 AM 54.9 °F 54.0 °F 97% 30.29 in 10.0 mi Calm Calm - N/A   Partly Cloudy
2:51 AM 54.9 °F 52.9 °F 93% 30.30 in 10.0 mi West 6.9 mph - N/A   Scattered Clouds
3:51 AM 52.9 °F 50.0 °F 90% 30.32 in 10.0 mi West 8.1 mph - N/A   Partly Cloudy
4:51 AM 50.9 °F 46.9 °F 86% 30.35 in 10.0 mi West 10.4 mph - N/A   Clear
5:51 AM 48.9 °F 45.0 °F 86% 30.38 in 10.0 mi West 5.8 mph - N/A   Clear
6:51 AM 47.8 °F 43.9 °F 86% 30.39 in 10.0 mi Calm Calm - N/A   Clear
7:51 AM 48.9 °F 43.9 °F 83% 30.44 in 10.0 mi West 8.1 mph - N/A   Clear
8:51 AM 52.0 °F 43.9 °F 74% 30.42 in 10.0 mi WNW 9.2 mph - N/A   Clear
9:51 AM 54.9 °F 43.0 °F 64% 30.46 in 10.0 mi West 8.1 mph - N/A   Clear
10:51 AM 56.8 °F 41.9 °F 57% 30.47 in 10.0 mi Variable 3.5 mph - N/A   Clear
11:51 AM 59.0 °F 38.8 °F 47% 30.48 in 10.0 mi West 8.1 mph - N/A   Clear
12:51 PM 59.9 °F 36.9 °F 42% 30.48 in 10.0 mi WSW 11.5 mph - N/A   Partly Cloudy
1:51 PM 61.0 °F 34.0 °F 36% 30.48 in 10.0 mi WNW 8.1 mph 17.3 mph N/A   Clear
2:51 PM 61.9 °F 32.0 °F 33% 30.49 in 10.0 mi WNW 9.2 mph 17.3 mph N/A   Partly Cloudy
3:51 PM 61.0 °F 32.9 °F 35% 30.51 in 10.0 mi NW 8.1 mph - N/A   Clear
4:51 PM 61.0 °F 34.0 °F 36% 30.53 in 10.0 mi Calm Calm - N/A   Clear
5:51 PM 56.8 °F 38.8 °F 51% 30.55 in 10.0 mi WNW 4.6 mph - N/A   Clear
6:51 PM 50.0 °F 41.9 °F 74% 30.59 in 10.0 mi Calm Calm - N/A   Clear
7:51 PM 47.8 °F 41.9 °F 80% 30.61 in 10.0 mi Calm Calm - N/A   Clear
8:51 PM 46.9 °F 41.9 °F 83% 30.64 in 10.0 mi Calm Calm - N/A   Clear
9:51 PM 43.9 °F 41.9 °F 93% 30.66 in 10.0 mi Calm Calm - N/A   Clear
10:51 PM 41.9 °F 39.9 °F 93% 30.68 in 10.0 mi Calm Calm - N/A   Clear
11:51 PM 41.0 °F 39.9 °F 96% 30.70 in 10.0 mi Calm Calm - N/A   Clear